Muncie, IN

6:39 AM EST on February 08, 2016 (GMT -0500)
Delaware County-Johnson

Weather History for KMIE - November, 2013

Change the Weather History Date:

Sunday, November 3, 2013

  Actual Average Record
Temperature  
Mean Temperature 44 °F 48 °F  
Max Temperature 52 °F 57 °F 76 °F (1987)
Min Temperature 35 °F 39 °F 17 °F (1991)
Degree Days  
Heating Degree Days 21 17  
Month to date heating degree days 53 50  
Since 1 July heating degree days 525 514  
Cooling Degree Days 0 0  
Month to date cooling degree days 0 0  
Year to date cooling degree days 973 955  
Moisture  
Dew Point 36 °F    
Average Humidity 76    
Maximum Humidity 100    
Minimum Humidity 52    
Precipitation  
Precipitation 0.00 in 0.11 in 0.87 in (2011)
Month to date precipitation 0.01 0.32  
Year to date precipitation 32.62 34.11  
Sea Level Pressure  
Sea Level Pressure 30.26 in    
Wind  
Wind Speed 5 mph (ENE)    
Max Wind Speed 10 mph    
Max Gust Speed 13 mph    
Visibility 9 miles    
Events      
T = Trace of Precipitation, MM = Missing Value Source: NWS Daily Summary

Daily Weather History Graph

Daily Weather History Graph

Search for Another Location

Airport or City:

Trip Planner

Search our weather history database for the weather conditions in past years. The results will help you decide how hot, cold, wet, or windy it might be!

Date:

Astronomy

Nov. 03, 2013 Rise Set
Actual Time 7:13 AM EST 5:36 PM EST
Civil Twilight 6:45 AM EST 6:04 PM EST
Nautical Twilight 6:13 AM EST 6:36 PM EST
Astronomical Twilight 5:41 AM EST 7:08 PM EST
Moon 7:16 AM EST (11/3) 5:50 PM EST (11/3)
Length of Visible Light 11h 19m
Length of Day
10h 22m
New Moon, 0% of the Moon is Illuminated
Nov 3
New Moon
Nov 10
First Quarter
Nov 17
Full
Nov 25
Last Quarter
Dec 2
New

Hourly Weather History & Observations

Time (EST) Temp. Windchill Dew Point Humidity Pressure Visibility Wind Dir Wind Speed Gust Speed Precip Events Conditions
12:53 AM 43.0 °F 39.5 °F 37.9 °F 82% 30.11 in 10.0 mi West 5.8 mph - N/A   Overcast
1:36 AM 42.8 °F 40.1 °F 39.2 °F 87% 30.12 in 10.0 mi West 4.6 mph - N/A   Overcast
1:53 AM 43.0 °F 40.3 °F 39.0 °F 86% 30.12 in 10.0 mi WNW 4.6 mph - N/A   Overcast
1:09 AM 42.8 °F 40.1 °F 39.2 °F 87% 30.11 in 10.0 mi WNW 4.6 mph - N/A   Overcast
1:53 AM 43.0 °F 38.8 °F 37.9 °F 82% 30.12 in 10.0 mi WNW 6.9 mph - N/A   Overcast
2:53 AM 42.1 °F 37.1 °F 37.0 °F 82% 30.14 in 10.0 mi WNW 8.1 mph - N/A   Overcast
3:53 AM 39.9 °F 35.8 °F 37.0 °F 89% 30.17 in 10.0 mi WNW 5.8 mph - N/A   Mostly Cloudy
4:53 AM 39.0 °F 36.8 °F 36.0 °F 89% 30.20 in 10.0 mi WNW 3.5 mph - N/A   Overcast
5:53 AM 37.0 °F 34.5 °F 35.1 °F 93% 30.23 in 8.0 mi West 3.5 mph - N/A   Partly Cloudy
6:53 AM 36.0 °F 33.3 °F 35.1 °F 97% 30.25 in 6.0 mi West 3.5 mph - N/A   Clear
7:53 AM 36.0 °F - 35.1 °F 97% 30.27 in 3.0 mi Calm Calm - N/A   Clear
8:10 AM 37.4 °F - 35.6 °F 93% 30.27 in 4.0 mi Calm Calm - N/A   Mostly Cloudy
8:21 AM 37.4 °F - 35.6 °F 93% 30.27 in 4.0 mi Calm Calm - N/A   Overcast
8:42 AM 39.2 °F - 37.4 °F 93% 30.28 in 4.0 mi Calm Calm - N/A   Scattered Clouds
8:53 AM 39.9 °F - 37.9 °F 93% 30.29 in 5.0 mi Calm Calm - N/A   Clear
9:09 AM 39.2 °F - 37.4 °F 93% 30.29 in 6.0 mi Calm Calm - N/A   Mostly Cloudy
9:32 AM 42.8 °F - 37.4 °F 81% 30.30 in 10.0 mi Calm Calm - N/A   Overcast
9:53 AM 43.0 °F - 37.9 °F 82% 30.31 in 10.0 mi Calm Calm - N/A   Overcast
10:53 AM 45.0 °F 43.5 °F 37.9 °F 76% 30.33 in 10.0 mi ENE 3.5 mph - N/A   Overcast
11:53 AM 46.0 °F 44.8 °F 37.0 °F 71% 30.33 in 10.0 mi East 3.5 mph - N/A   Overcast
12:22 PM 46.4 °F - 35.6 °F 66% 30.31 in 10.0 mi Calm Calm - N/A   Scattered Clouds
12:53 PM 46.9 °F - 35.1 °F 63% 30.32 in 10.0 mi Calm Calm - N/A   Clear
1:53 PM 51.1 °F - 35.1 °F 54% 30.29 in 10.0 mi Variable 5.8 mph - N/A   Mostly Cloudy
2:53 PM 48.9 °F - 36.0 °F 61% 30.30 in 10.0 mi ESE 5.8 mph - N/A   Mostly Cloudy
3:53 PM 50.0 °F - 34.0 °F 54% 30.29 in 10.0 mi SE 5.8 mph - N/A   Overcast
4:53 PM 48.9 °F - 37.0 °F 64% 30.30 in 10.0 mi East 8.1 mph - N/A   Mostly Cloudy
5:53 PM 45.0 °F 41.2 °F 37.0 °F 74% 30.31 in 10.0 mi East 6.9 mph - N/A   Mostly Cloudy
6:53 PM 39.0 °F 34.8 °F 34.0 °F 82% 30.32 in 10.0 mi East 5.8 mph - N/A   Clear
7:53 PM 37.9 °F 33.5 °F 34.0 °F 86% 30.33 in 10.0 mi East 5.8 mph - N/A   Clear
8:53 PM 39.0 °F 34.8 °F 35.1 °F 86% 30.33 in 10.0 mi ESE 5.8 mph - N/A   Clear
9:53 PM 37.9 °F 33.5 °F 34.0 °F 86% 30.35 in 10.0 mi ESE 5.8 mph - N/A   Clear
10:53 PM 37.9 °F 33.5 °F 34.0 °F 86% 30.35 in 10.0 mi ESE 5.8 mph - N/A   Clear